When you browse on this site, cookies collect data to enhance your experience and personalize the content and advertising you see.
Visit our Privacy Policy to learn more. By continuing to use the site, you agree to this use of cookies and data.
  • In Latvia
  • List of Countries
  • For 7 days
  • Water Temperature
  • Weather Map
  • Weather Widgets
  • user-avatar
    Login

    Hourly Weather Pocholaje

    Today, 26 February, Wednesday

    Time Temperature Precipitation Wind Pressure Humidity
    00:00 +6°C° 0.2 mm 5 mps 732 mmHg 81%
    01:00 +6°C° 0.2 mm 5 mps 732 mmHg 82%
    02:00 +6°C° 0 mm 4 mps 731 mmHg 84%
    03:00 +7°C° 0 mm 3 mps 731 mmHg 85%
    04:00 +7°C° 0 mm 3 mps 730 mmHg 86%
    05:00 +7°C° 0 mm 3 mps 730 mmHg 87%
    06:00 +5°C° 0 mm 3 mps 730 mmHg 88%
    07:00 +6°C° 0 mm 2 mps 730 mmHg 90%
    08:00 +6°C° 0 mm 2 mps 729 mmHg 91%
    09:00 +7°C° 0 mm 2 mps 729 mmHg 86%
    10:00 +8°C° 0 mm 3 mps 729 mmHg 81%
    11:00 +9°C° 0 mm 3 mps 728 mmHg 77%
    12:00 +9°C° 0.6 mm 3 mps 728 mmHg 78%
    13:00 +9°C° 0.6 mm 3 mps 728 mmHg 80%
    14:00 +7°C° 0.6 mm 4 mps 727 mmHg 81%
    15:00 +8°C° 1.7 mm 3 mps 727 mmHg 83%
    16:00 +7°C° 1.7 mm 2 mps 727 mmHg 85%
    17:00 +6°C° 1.7 mm 2 mps 727 mmHg 87%
    18:00 +6°C° 0.5 mm 2 mps 728 mmHg 85%
    19:00 +6°C° 0.5 mm 2 mps 728 mmHg 84%
    20:00 +5°C° 0.5 mm 3 mps 729 mmHg 83%
    21:00 +4°C° 0 mm 3 mps 729 mmHg 83%
    22:00 +4°C° 0 mm 4 mps 729 mmHg 83%
    23:00 +4°C° 0 mm 4 mps 730 mmHg 82%

    Tomorrow, 27 February, Thursday

    Time Temperature Precipitation Wind Pressure Humidity
    00:00 +3°C° 0 mm 4 mps 730 mmHg 81%
    01:00 +3°C° 0 mm 3 mps 730 mmHg 80%
    02:00 +2°C° 0 mm 3 mps 731 mmHg 79%
    03:00 +2°C° 0 mm 3 mps 731 mmHg 80%
    04:00 +1°C° 0 mm 4 mps 731 mmHg 80%
    05:00 0°C° 0 mm 4 mps 731 mmHg 80%
    06:00 0°C° 0 mm 4 mps 731 mmHg 82%
    07:00 -1°C° 0 mm 5 mps 732 mmHg 84%
    08:00 -1°C° 0 mm 5 mps 733 mmHg 85%
    09:00 0°C° 0 mm 5 mps 733 mmHg 81%
    10:00 +1°C° 0 mm 6 mps 733 mmHg 76%
    11:00 +1°C° 0 mm 6 mps 734 mmHg 72%
    12:00 +2°C° 0.1 mm 7 mps 734 mmHg 67%
    13:00 +2°C° 0.1 mm 7 mps 734 mmHg 62%
    14:00 +3°C° 0.1 mm 7 mps 735 mmHg 57%
    15:00 +3°C° 0 mm 6 mps 735 mmHg 57%
    16:00 +2°C° 0 mm 6 mps 734 mmHg 56%
    17:00 +2°C° 0 mm 5 mps 734 mmHg 56%
    18:00 +1°C° 0 mm 4 mps 735 mmHg 62%
    19:00 +1°C° 0 mm 3 mps 735 mmHg 68%
    20:00 +1°C° 0 mm 2 mps 735 mmHg 74%
    21:00 +1°C° 0 mm 2 mps 735 mmHg 75%
    22:00 +1°C° 0 mm 2 mps 735 mmHg 77%
    23:00 -1°C° 0 mm 2 mps 735 mmHg 78%

    Day after tomorrow, 28 February, Friday

    Time Temperature Precipitation Wind Pressure Humidity
    00:00 0°C° 0 mm 3 mps 734 mmHg 77%
    01:00 0°C° 0 mm 3 mps 734 mmHg 75%
    02:00 0°C° 0 mm 3 mps 733 mmHg 74%
    03:00 0°C° 0 mm 3 mps 733 mmHg 72%
    04:00 0°C° 0 mm 3 mps 732 mmHg 71%
    05:00 0°C° 0 mm 4 mps 732 mmHg 70%
    06:00 -1°C° 0.5 mm 4 mps 731 mmHg 78%
    07:00 -1°C° 0.5 mm 5 mps 731 mmHg 86%
    08:00 -1°C° 0.5 mm 5 mps 730 mmHg 94%
    09:00 -1°C° 0.6 mm 5 mps 730 mmHg 92%
    10:00 0°C° 0.6 mm 4 mps 730 mmHg 89%
    11:00 +1°C° 0.6 mm 4 mps 730 mmHg 87%
    12:00 +1°C° 0.4 mm 4 mps 731 mmHg 89%
    13:00 0°C° 0.4 mm 4 mps 731 mmHg 92%
    14:00 0°C° 0.4 mm 5 mps 732 mmHg 94%
    15:00 -1°C° 0.3 mm 6 mps 733 mmHg 95%
    16:00 -1°C° 0.3 mm 7 mps 734 mmHg 95%
    17:00 -2°C° 0.3 mm 8 mps 735 mmHg 96%
    18:00 -2°C° 0.2 mm 7 mps 736 mmHg 96%
    19:00 -2°C° 0.2 mm 7 mps 737 mmHg 95%
    20:00 -2°C° 0.2 mm 6 mps 738 mmHg 95%
    21:00 -2°C° 0.2 mm 6 mps 739 mmHg 94%
    22:00 -2°C° 0.2 mm 6 mps 740 mmHg 93%
    23:00 -2°C° 0.2 mm 6 mps 741 mmHg 92%

    29 February, Saturday

    Time Temperature Precipitation Wind Pressure Humidity
    00:00 -3°C° 0 mm 6 mps 741 mmHg 91%
    01:00 -3°C° 0 mm 6 mps 742 mmHg 91%
    02:00 -2°C° 0 mm 5 mps 742 mmHg 90%
    03:00 -2°C° 0 mm 5 mps 742 mmHg 89%
    04:00 -1°C° 0 mm 5 mps 743 mmHg 88%
    05:00 -1°C° 0 mm 5 mps 743 mmHg 88%
    06:00 -1°C° 0.1 mm 5 mps 743 mmHg 90%
    07:00 -1°C° 0.1 mm 5 mps 743 mmHg 92%
    08:00 -2°C° 0.1 mm 5 mps 743 mmHg 94%
    09:00 -1°C° 0.1 mm 5 mps 743 mmHg 89%
    10:00 0°C° 0.1 mm 5 mps 744 mmHg 84%
    11:00 0°C° 0.1 mm 5 mps 744 mmHg 79%
    12:00 +1°C° 0 mm 4 mps 744 mmHg 75%
    13:00 +3°C° 0 mm 4 mps 744 mmHg 72%
    14:00 +3°C° 0 mm 3 mps 744 mmHg 68%
    15:00 +3°C° 0 mm 3 mps 743 mmHg 68%
    16:00 +5°C° 0 mm 2 mps 743 mmHg 69%
    17:00 +5°C° 0 mm 2 mps 743 mmHg 69%
    18:00 +4°C° 0 mm 2 mps 743 mmHg 72%
    19:00 +2°C° 0 mm 3 mps 743 mmHg 76%
    20:00 +1°C° 0 mm 3 mps 743 mmHg 79%
    21:00 0°C° 0 mm 4 mps 742 mmHg 77%
    22:00 0°C° 0 mm 5 mps 742 mmHg 76%
    23:00 0°C° 0 mm 5 mps 742 mmHg 74%

    1 March, Sunday

    Time Temperature Precipitation Wind Pressure Humidity
    00:00 0°C° 0 mm 5 mps 741 mmHg 73%
    01:00 -1°C° 0 mm 6 mps 741 mmHg 72%
    02:00 -1°C° 0 mm 6 mps 741 mmHg 72%
    03:00 -1°C° 0 mm 6 mps 740 mmHg 71%
    04:00 0°C° 0 mm 5 mps 740 mmHg 70%
    05:00 -1°C° 0 mm 5 mps 740 mmHg 69%
    06:00 0°C° 0 mm 5 mps 740 mmHg 68%
    07:00 0°C° 0 mm 5 mps 739 mmHg 67%
    08:00 0°C° 0 mm 5 mps 739 mmHg 66%
    09:00 +1°C° 0.1 mm 5 mps 739 mmHg 68%
    10:00 +2°C° 0.1 mm 5 mps 739 mmHg 70%
    11:00 +3°C° 0.1 mm 5 mps 739 mmHg 72%
    12:00 +3°C° 0.4 mm 5 mps 739 mmHg 78%
    13:00 +2°C° 0.4 mm 5 mps 739 mmHg 83%
    14:00 +2°C° 0.4 mm 5 mps 739 mmHg 88%
    15:00 +3°C° 0.1 mm 4 mps 739 mmHg 87%
    16:00 +3°C° 0.1 mm 3 mps 739 mmHg 86%
    17:00 +4°C° 0.1 mm 3 mps 739 mmHg 84%
    18:00 +4°C° 0 mm 2 mps 739 mmHg 86%
    19:00 +3°C° 0 mm 2 mps 739 mmHg 88%
    20:00 +4°C° 0 mm 1 mps 739 mmHg 90%
    21:00 +3°C° 0 mm 2 mps 738 mmHg 90%
    22:00 +3°C° 0 mm 2 mps 738 mmHg 90%
    23:00 +3°C° 0 mm 2 mps 738 mmHg 90%

    2 March, Monday

    Time Temperature Precipitation Wind Pressure Humidity
    00:00 +3°C° 1.2 mm 2 mps 738 mmHg 92%
    01:00 +4°C° 1.2 mm 1 mps 737 mmHg 94%
    02:00 +4°C° 1.2 mm 1 mps 737 mmHg 96%
    03:00 +4°C° 1.8 mm 1 mps 737 mmHg 97%
    04:00 +4°C° 1.8 mm 1 mps 736 mmHg 98%
    05:00 +4°C° 1.8 mm 1 mps 736 mmHg 98%
    06:00 +4°C° 0.2 mm 1 mps 736 mmHg 98%
    07:00 +4°C° 0.2 mm 1 mps 736 mmHg 98%
    08:00 +4°C° 0.2 mm 1 mps 737 mmHg 98%
    09:00 +5°C° 0 mm 1 mps 737 mmHg 93%
    10:00 +5°C° 0 mm 2 mps 737 mmHg 88%
    11:00 +6°C° 0 mm 2 mps 738 mmHg 83%
    12:00 +7°C° 0 mm 2 mps 738 mmHg 78%
    13:00 +7°C° 0 mm 2 mps 738 mmHg 72%
    14:00 +8°C° 0 mm 2 mps 738 mmHg 67%
    15:00 +8°C° 0 mm 2 mps 738 mmHg 67%
    16:00 +9°C° 0 mm 1 mps 738 mmHg 67%
    17:00 +9°C° 0 mm 1 mps 738 mmHg 68%
    18:00 +7°C° 0 mm 2 mps 738 mmHg 73%
    19:00 +6°C° 0 mm 2 mps 738 mmHg 79%
    20:00 +4°C° 0 mm 3 mps 738 mmHg 85%
    21:00 +3°C° 0 mm 3 mps 738 mmHg 85%
    22:00 +3°C° 0 mm 3 mps 738 mmHg 86%
    23:00 +3°C° 0 mm 3 mps 738 mmHg 87%
    Show more